| time (UTC) | temp C | wind direction | speed KPH | gust KPH | rain 1hr cm | rain 24hr cm | rain mn cm | humidity % | barometer mb |
| 20260504001004 | 7 | 243 | 4.8 | 9.7 | 0.08 | 0.20 | 0.20 | 91 | 1008.9 |
| 20260504000503 | 7 | 234 | 3.2 | 9.7 | 0.05 | 0.18 | 0.18 | 91 | 1009.0 |
| 20260504000003 | 7 | 219 | 3.2 | 9.7 | 0.05 | 0.18 | 0.18 | 90 | 1008.7 |
| 20260503235004 | 7 | 123 | 1.6 | 9.7 | 0.03 | 0.15 | 0.15 | 88 | 1009.1 |
| 20260503234003 | 7 | 203 | 3.2 | 8.0 | 0.03 | 0.15 | 0.15 | 89 | 1008.8 |
| 20260503233503 | 7 | 266 | 3.2 | 14.5 | 0.03 | 0.15 | 0.15 | 91 | 1008.5 |
| 20260503233003 | 7 | 184 | 4.8 | 14.5 | 0.03 | 0.15 | 0.15 | 91 | 1008.5 |
| 20260503232503 | 6 | 193 | 3.2 | 14.5 | 0.00 | 0.13 | 0.13 | 91 | 1008.8 |
| 20260503232003 | 6 | 198 | 3.2 | 11.3 | 0.00 | 0.13 | 0.13 | 93 | 1008.8 |
| 20260503231503 | 6 | 224 | 1.6 | 11.3 | 0.00 | 0.13 | 0.13 | 94 | 1009.1 |
| 20260503231003 | 6 | 338 | 1.6 | 11.3 | 0.03 | 0.13 | 0.13 | 94 | 1008.5 |
| 20260503230503 | 6 | 189 | 4.8 | 11.3 | 0.03 | 0.13 | 0.13 | 94 | 1008.5 |
| 20260503230003 | 6 | 189 | 6.4 | 11.3 | 0.03 | 0.13 | 0.13 | 94 | 1008.8 |
| 20260503225503 | 6 | 155 | 1.6 | 9.7 | 0.03 | 0.13 | 0.13 | 95 | 1008.8 |
| 20260503224503 | 6 | 152 | 1.6 | 8.0 | 0.03 | 0.13 | 0.13 | 95 | 1009.1 |
| 20260503224003 | 6 | 171 | 4.8 | 9.7 | 0.03 | 0.13 | 0.13 | 95 | 1008.5 |
| 20260503223503 | 6 | 165 | 4.8 | 9.7 | 0.03 | 0.13 | 0.13 | 95 | 1009.1 |
| 20260503223003 | 6 | 168 | 4.8 | 9.7 | 0.03 | 0.13 | 0.13 | 95 | 1009.1 |
| 20260503222004 | 6 | 186 | 4.8 | 14.5 | 0.03 | 0.13 | 0.13 | 94 | 1009.1 |
| 20260503221503 | 6 | 194 | 4.8 | 14.5 | 0.03 | 0.13 | 0.13 | 93 | 1009.5 |
| 20260503221003 | 6 | 187 | 4.8 | 9.7 | 0.00 | 0.10 | 0.10 | 93 | 1009.5 |
| 20260503220503 | 6 | 170 | 4.8 | 9.7 | 0.00 | 0.10 | 0.10 | 93 | 1008.8 |
| 20260503220003 | 6 | 178 | 9.7 | 9.7 | 0.03 | 0.10 | 0.10 | 93 | 1009.5 |
| 20260503215503 | 6 | 165 | 1.6 | 8.0 | 0.05 | 0.10 | 0.10 | 92 | 1009.5 |
| 20260503214003 | 6 | 191 | 0.0 | 9.7 | 0.10 | 0.10 | 0.10 | 92 | 1009.1 |
| 20260503213503 | 6 | 186 | 3.2 | 9.7 | 0.10 | 0.10 | 0.10 | 92 | 1009.1 |
| 20260503213004 | 6 | 199 | 3.2 | 8.0 | 0.10 | 0.10 | 0.10 | 93 | 1009.5 |
| 20260503212503 | 6 | 150 | 4.8 | 11.3 | 0.10 | 0.10 | 0.10 | 93 | 1008.8 |
| 20260503212003 | 6 | 166 | 1.6 | 11.3 | 0.10 | 0.10 | 0.10 | 92 | 1009.5 |
| 20260503211503 | 6 | 259 | 3.2 | 11.3 | 0.10 | 0.10 | 0.10 | 91 | 1009.5 |
| 20260503211003 | 6 | 287 | 1.6 | 12.9 | 0.10 | 0.10 | 0.10 | 91 | 1009.8 |
| 20260503210503 | 6 | 315 | 1.6 | 20.9 | 0.10 | 0.10 | 0.10 | 88 | 1009.8 |
| 20260503210004 | 7 | 270 | 3.2 | 20.9 | 0.08 | 0.08 | 0.08 | 83 | 1009.8 |
| 20260503205503 | 8 | 281 | 11.3 | 20.9 | 0.05 | 0.05 | 0.05 | 81 | 1009.5 |
| 20260503205004 | 8 | 268 | 9.7 | 19.3 | 0.03 | 0.03 | 0.03 | 76 | 1009.5 |
| 20260503204503 | 9 | 297 | 9.7 | 14.5 | 0.00 | 0.00 | 0.00 | 72 | 1008.8 |
| 20260503204004 | 9 | 305 | 3.2 | 8.0 | 0.00 | 0.00 | 0.00 | 73 | 1008.8 |
| 20260503203503 | 9 | 161 | 0.0 | 8.0 | 0.00 | 0.00 | 0.00 | 70 | 1009.1 |
| 20260503203003 | 9 | 264 | 3.2 | 8.0 | 0.00 | 0.00 | 0.00 | 70 | 1009.1 |
| 20260503202503 | 9 | 171 | 3.2 | 4.8 | 0.00 | 0.00 | 0.00 | 71 | 1009.1 |
| 20260503201503 | 9 | 155 | 0.0 | 24.1 | 0.00 | 0.00 | 0.00 | 72 | 1008.8 |
| 20260503201003 | 8 | 105 | 0.0 | 24.1 | 0.00 | 0.00 | 0.00 | 72 | 1009.1 |
| 20260503200503 | 8 | 297 | 8.0 | 24.1 | 0.00 | 0.00 | 0.00 | 71 | 1009.5 |
| 20260503200004 | 8 | 238 | 3.2 | 22.5 | 0.00 | 0.00 | 0.00 | 73 | 1009.5 |
| 20260503195503 | 9 | 201 | 8.0 | 22.5 | 0.00 | 0.00 | 0.00 | 71 | 1009.5 |
| 20260503195003 | 10 | 320 | 11.3 | 20.9 | 0.00 | 0.00 | 0.00 | 65 | 1009.5 |
| 20260503194503 | 10 | 297 | 4.8 | 20.9 | 0.00 | 0.00 | 0.00 | 61 | 1009.5 |
| 20260503194003 | 10 | 189 | 1.6 | 16.1 | 0.00 | 0.00 | 0.00 | 61 | 1009.5 |
| 20260503193003 | 11 | 189 | 0.0 | 11.3 | 0.00 | 0.00 | 0.00 | 53 | 1009.5 |
| 20260503192503 | 11 | 195 | 11.3 | 19.3 | 0.00 | 0.00 | 0.00 | 52 | 1009.5 |
| 20260503192003 | 11 | 260 | 3.2 | 19.3 | 0.00 | 0.00 | 0.00 | 52 | 1009.1 |
| 20260503191503 | 11 | 203 | 4.8 | 19.3 | 0.00 | 0.00 | 0.00 | 53 | 1009.5 |
| 20260503191003 | 11 | 194 | 3.2 | 19.3 | 0.00 | 0.00 | 0.00 | 52 | 1009.8 |
| 20260503190504 | 11 | 210 | 8.0 | 20.9 | 0.00 | 0.00 | 0.00 | 53 | 1009.5 |
| 20260503190003 | 11 | 222 | 4.8 | 20.9 | 0.00 | 0.00 | 0.00 | 53 | 1009.7 |
| 20260503185503 | 11 | 205 | 3.2 | 20.9 | 0.00 | 0.00 | 0.00 | 54 | 1010.0 |
| 20260503185003 | 11 | 187 | 8.0 | 20.9 | 0.00 | 0.00 | 0.00 | 53 | 1010.0 |
| 20260503184004 | 10 | 174 | 1.6 | 19.3 | 0.00 | 0.00 | 0.00 | 52 | 1009.8 |
| 20260503183503 | 10 | 161 | 4.8 | 19.3 | 0.00 | 0.00 | 0.00 | 51 | 1009.8 |
| 20260503183004 | 10 | 177 | 3.2 | 19.3 | 0.00 | 0.00 | 0.00 | 52 | 1010.0 |
| 20260503182504 | 10 | 258 | 0.0 | 19.3 | 0.00 | 0.00 | 0.00 | 52 | 1010.5 |
| 20260503181004 | 10 | 207 | 4.8 | 19.3 | 0.00 | 0.00 | 0.00 | 53 | 1010.8 |
| 20260503180504 | 10 | 263 | 4.8 | 19.3 | 0.00 | 0.00 | 0.00 | 52 | 1010.8 |
| 20260503175502 | 10 | 215 | 6.4 | 25.7 | 0.00 | 0.00 | 0.00 | 49 | 1010.8 |
| 20260503175003 | 10 | 168 | 9.7 | 25.7 | 0.00 | 0.00 | 0.00 | 49 | 1010.5 |
| 20260503174503 | 10 | 203 | 8.0 | 29.0 | 0.00 | 0.00 | 0.00 | 49 | 1010.8 |
| 20260503173503 | 10 | 176 | 9.7 | 29.0 | 0.00 | 0.00 | 0.00 | 48 | 1010.5 |
| 20260503172504 | 11 | 279 | 8.0 | 24.1 | 0.00 | 0.00 | 0.00 | 46 | 1011.5 |
| 20260503172003 | 10 | 228 | 4.8 | 24.1 | 0.00 | 0.00 | 0.00 | 48 | 1011.2 |
| 20260503171503 | 11 | 249 | 4.8 | 19.3 | 0.00 | 0.00 | 0.00 | 46 | 1010.8 |
| 20260503171003 | 11 | 197 | 3.2 | 11.3 | 0.00 | 0.00 | 0.00 | 45 | 1011.2 |
| 20260503170503 | 11 | 211 | 9.7 | 14.5 | 0.00 | 0.00 | 0.00 | 46 | 1010.8 |
| 20260503151004 | 8 | 99 | 3.2 | 16.1 | 0.00 | 0.00 | 0.00 | 46 | 1012.9 |
| 20260503150503 | 7 | 103 | 1.6 | 16.1 | 0.00 | 0.00 | 0.00 | 46 | 1012.9 |
| 20260503131003 | 4 | 203 | 1.6 | 11.3 | 0.00 | 0.00 | 0.00 | 66 | 1013.7 |
| 20260503130504 | 4 | 171 | 3.2 | 11.3 | 0.00 | 0.00 | 0.00 | 66 | 1013.9 |
| 20260503110504 | 0 | 74 | 3.2 | 3.2 | 0.00 | 0.00 | 0.00 | 71 | 1014.2 |
| 20260503090503 | 1 | 91 | 1.6 | 3.2 | 0.00 | 0.00 | 0.00 | 65 | 1014.2 |
| 20260503081503 | 1 | 113 | 3.2 | 3.2 | 0.00 | 0.00 | 0.00 | 64 | 1014.6 |
| 20260503081004 | 1 | 109 | 3.2 | 3.2 | 0.00 | 0.00 | 0.00 | 64 | 1014.2 |
| 20260503072503 | 1 | 94 | 1.6 | 3.2 | 0.00 | 0.00 | 0.00 | 65 | 1015.0 |
| 20260503072004 | 1 | 104 | 1.6 | 3.2 | 0.00 | 0.00 | 0.00 | 64 | 1014.7 |
| 20260503071503 | 1 | 109 | 3.2 | 3.2 | 0.00 | 0.00 | 0.00 | 64 | 1014.7 |
| 20260503071004 | 1 | 108 | 3.2 | 4.8 | 0.00 | 0.00 | 0.00 | 64 | 1015.0 |
| 20260503070503 | 1 | 110 | 3.2 | 4.8 | 0.00 | 0.00 | 0.00 | 63 | 1015.2 |
| 20260503054503 | 0 | 139 | 3.2 | 4.8 | 0.00 | 0.00 | 0.00 | 73 | 1015.2 |
| 20260503053503 | 0 | 139 | 3.2 | 3.2 | 0.00 | 0.00 | 0.00 | 76 | 1015.6 |
| 20260503053003 | -1 | 113 | 1.6 | 3.2 | 0.00 | 0.00 | 0.00 | 77 | 1015.2 |
| 20260503052502 | -1 | 105 | 0.0 | 3.2 | 0.00 | 0.00 | 0.00 | 77 | 1015.6 |
| 20260503051503 | -1 | 112 | 3.2 | 3.2 | 0.00 | 0.00 | 0.00 | 77 | 1015.6 |
| 20260503051002 | 0 | 108 | 3.2 | 3.2 | 0.00 | 0.00 | 0.00 | 76 | 1015.6 |
| 20260503050502 | 0 | 102 | 3.2 | 3.2 | 0.00 | 0.00 | 0.00 | 73 | 1015.6 |
| 20260503050002 | 1 | 108 | 3.2 | 3.2 | 0.00 | 0.00 | 0.00 | 70 | 1015.6 |
| 20260503045503 | 1 | 100 | 3.2 | 3.2 | 0.00 | 0.00 | 0.00 | 69 | 1015.6 |
| 20260503045003 | 1 | 102 | 1.6 | 3.2 | 0.00 | 0.00 | 0.00 | 68 | 1015.9 |
| 20260503043502 | 1 | 109 | 3.2 | 3.2 | 0.00 | 0.00 | 0.00 | 70 | 1016.3 |
| 20260503043002 | 1 | 117 | 3.2 | 3.2 | 0.00 | 0.00 | 0.00 | 71 | 1015.6 |
| 20260503042502 | 1 | 122 | 3.2 | 3.2 | 0.00 | 0.00 | 0.00 | 70 | 1015.9 |
| 20260503042003 | 0 | 101 | 0.0 | 3.2 | 0.00 | 0.00 | 0.00 | 71 | 1016.3 |
| 20260503041503 | 0 | 109 | 1.6 | 3.2 | 0.00 | 0.00 | 0.00 | 73 | 1015.9 |
| 20260503041004 | 0 | 100 | 1.6 | 3.2 | 0.00 | 0.00 | 0.00 | 74 | 1015.9 |
| 20260503040502 | 0 | 103 | 3.2 | 3.2 | 0.00 | 0.00 | 0.00 | 75 | 1015.9 |
| 20260503035503 | 0 | 89 | 1.6 | 3.2 | 0.00 | 0.00 | 0.00 | 73 | 1015.9 |
| 20260503035002 | 0 | 87 | 1.6 | 4.8 | 0.00 | 0.00 | 0.00 | 73 | 1015.6 |
| 20260503034003 | 1 | 122 | 4.8 | 4.8 | 0.00 | 0.00 | 0.00 | 68 | 1015.9 |
| 20260503033502 | 1 | 111 | 3.2 | 3.2 | 0.00 | 0.00 | 0.00 | 64 | 1015.9 |
| 20260503033002 | 2 | 108 | 3.2 | 3.2 | 0.00 | 0.00 | 0.00 | 64 | 1015.9 |
| 20260503032504 | 2 | 108 | 3.2 | 3.2 | 0.00 | 0.00 | 0.00 | 62 | 1016.3 |
| 20260503032004 | 2 | 96 | 1.6 | 3.2 | 0.00 | 0.00 | 0.00 | 63 | 1015.9 |
| 20260503031503 | 2 | 102 | 3.2 | 3.2 | 0.00 | 0.00 | 0.00 | 63 | 1015.9 |
| 20260503031003 | 2 | 116 | 3.2 | 3.2 | 0.00 | 0.00 | 0.00 | 63 | 1016.3 |
| 20260503030502 | 1 | 80 | 1.6 | 3.2 | 0.00 | 0.00 | 0.00 | 64 | 1016.6 |
| 20260503030003 | 1 | 77 | 1.6 | 3.2 | 0.00 | 0.00 | 0.00 | 65 | 1015.9 |
| 20260503025503 | 0 | 86 | 3.2 | 3.2 | 0.00 | 0.00 | 0.00 | 66 | 1016.3 |
| 20260503024003 | 1 | 100 | 0.0 | 3.2 | 0.00 | 0.00 | 0.00 | 64 | 1015.9 |
| 20260503023504 | 1 | 39 | 1.6 | 4.8 | 0.00 | 0.00 | 0.00 | 62 | 1016.3 |
| 20260503023003 | 1 | 68 | 0.0 | 4.8 | 0.00 | 0.00 | 0.00 | 62 | 1016.3 |
| 20260503022003 | 2 | 115 | 0.0 | 4.8 | 0.00 | 0.00 | 0.00 | 60 | 1016.3 |
| 20260503021503 | 2 | 82 | 1.6 | 4.8 | 0.00 | 0.00 | 0.00 | 60 | 1016.3 |
| 20260503021003 | 2 | 81 | 0.0 | 4.8 | 0.00 | 0.00 | 0.00 | 59 | 1016.6 |
| 20260503020003 | 2 | 13 | 1.6 | 3.2 | 0.00 | 0.00 | 0.00 | 59 | 1016.6 |
| 20260503015502 | 2 | 27 | 1.6 | 3.2 | 0.00 | 0.00 | 0.00 | 58 | 1015.9 |
| 20260503015003 | 2 | 348 | 1.6 | 3.2 | 0.00 | 0.00 | 0.00 | 58 | 1015.9 |
| 20260503014003 | 2 | 310 | 0.0 | 3.2 | 0.00 | 0.00 | 0.00 | 59 | 1016.3 |
| 20260503013504 | 2 | 75 | 0.0 | 3.2 | 0.00 | 0.00 | 0.00 | 61 | 1016.3 |
| 20260503013002 | 1 | 18 | 0.0 | 4.8 | 0.00 | 0.00 | 0.00 | 61 | 1016.3 |
| 20260503012502 | 1 | 34 | 0.0 | 4.8 | 0.00 | 0.00 | 0.00 | 62 | 1015.9 |
| 20260503012003 | 1 | 23 | 1.6 | 4.8 | 0.00 | 0.00 | 0.00 | 62 | 1016.2 |
| 20260503011503 | 1 | 343 | 1.6 | 4.8 | 0.00 | 0.00 | 0.00 | 61 | 1016.3 |
| 20260503010003 | 2 | 357 | 0.0 | 3.2 | 0.00 | 0.00 | 0.00 | 61 | 1016.1 |
| 20260503005003 | 2 | 339 | 0.0 | 8.0 | 0.00 | 0.00 | 0.00 | 60 | 1015.9 |
| 20260503004503 | 2 | 330 | 1.6 | 8.0 | 0.00 | 0.00 | 0.00 | 60 | 1015.9 |
| 20260503004002 | 2 | 10 | 1.6 | 8.0 | 0.00 | 0.00 | 0.00 | 59 | 1015.8 |
| 20260503003503 | 2 | 354 | 3.2 | 8.0 | 0.00 | 0.00 | 0.00 | 60 | 1015.6 |
| 20260503003003 | 2 | 320 | 1.6 | 8.0 | 0.00 | 0.00 | 0.00 | 59 | 1015.6 |
| 20260503002502 | 2 | 73 | 1.6 | 8.0 | 0.00 | 0.00 | 0.00 | 59 | 1015.9 |
| 20260503002004 | 2 | 307 | 3.2 | 8.0 | 0.00 | 0.00 | 0.00 | 57 | 1015.9 |